HKMO

Moi International Airport

Airport
ICAO code
HKMO
IATA Code
MBA
Summary
ICAO Region
AFI
ICAO Territory
Location

Mombasa, Mombasa County

Serving
Mombasa
Elevation
200 ft
Coordinates
4° 1' 37" S , 39° 36' 5" E
KCC
As
Metar
Observation
HKMO 141330Z 13009KT 9999 BKN023 BKN080 25/21 Q1013 NOSIG
Station
Mombasa
Date/Time
2022-08-14 13:30:00
Wind direction
130°
Wind speed
09 kts
Lowest cloud amount
broken clouds
Temperature
25°C
Dew point
21°C
Humidity
78%
QNH
1013 hPa
Weather condition
n/a

International airport serving Mombasa, Kenya.

Climatology

Tropical Savanna climate (Köppen climate classification As)

Runways

Designator Length Width Surface Rops
15/33 1363 36 ASP Yes/Yes
3/21 3350 46 ASP Yes/Yes

Airport map

Aerial View

SKYbrary Partners:

Safety knowledge contributed by: